Starlink 32199

operational
NORAD ID: 60320 Int'l Des: 2024-133 Owner: SPXS Country: US Constellation: starlink
LEOCIRCULAR

关于 Starlink 32199

正在加载描述...

实时位置

正在加载3D地球...

即将过境

高度历史

Altitude vs Time

uPlot chart will show altitude changes over time

两行轨道根数

1 60320U 24133V 25258.59515380 .00010941 00000-0 38087-3 0 9996
2 60320 53.1618 30.2818 0000928 78.8625 281.2480 15.30208811 64839
Epoch: Sep 15, 2025 • Age: 15 hours

当前状态

高度 492.2 km
速度 7.62 km/s
星下点 -48.11°S, 109.22°W
发射日期 Jul 28, 2024
运行时间 1.1 years
类型 internet

技术详情

分类 Payload
质量 730.00 kg
干质量 700.00 kg
总质量 730.00 kg
长度 0.30 m
直径 4.10 m
跨度 29.00 m
形状 Box + pan
制造商 SPXS
平台类型 Starlink V2M
阶段状态 In Orbit
所有者/国家 SPXS/US

大型星座

Loading constellations...